Terug naar catalogus

FENGYUN 1C DEB

ActiefPO
NORAD 33663·DEBRIS·🇨🇳 China

Gelanceerd May 10, 1999 vanaf Taiyuan Satellite Launch Center

Loading…

Volgende Passages (komende 24 uur)

TLE

VerouderendSource: Space-Track

Epoch: Sep 9, 2026, 07:52 UTC

1 33663U 99025DEY 26252.32821440  .00020757  00000-0  27980-2 0  9996
2 33663  98.8877 272.9540 0057990 249.9823 109.5135 14.78004565681803

Volg FENGYUN 1C DEB in realtime met AllMySat

Download on the App Store